Weather History for KLNS - September, 2013

Change the Weather History Date:

Tuesday, September 24, 2013

  Actual Average Record
Temperature  
Mean Temperature 54 °F -  
Max Temperature 71 °F 71 °F 84 °F (1984)
Min Temperature 39 °F 48 °F 36 °F (1983)
Degree Days  
Heating Degree Days 10    
Growing Degree Days 4 (Base 50)    
Moisture  
Dew Point 43 °F    
Average Humidity 67    
Maximum Humidity 93    
Minimum Humidity 39    
Precipitation  
Precipitation 0.00 in - - ()
Sea Level Pressure  
Sea Level Pressure 30.03 in    
Wind  
Wind Speed 5 mph (NW)    
Max Wind Speed 10 mph    
Max Gust Speed -    
Visibility 10 miles    
Events      
Averages and records for this station are not official NWS values.
T = Trace of Precipitation, MM = Missing Value Source: NWS Daily Summary

Daily Weather History Graph

Daily Weather History Graph

Search for Another Location

Airport or City:

Trip Planner

Search our weather history database for the weather conditions in past years. The results will help you decide how hot, cold, wet, or windy it might be!

Date:

Astronomy

Sep. 24, 2013 Rise Set
Actual Time 6:54 AM EDT 6:58 PM EDT
Civil Twilight 6:27 AM EDT 7:25 PM EDT
Nautical Twilight 5:56 AM EDT 7:57 PM EDT
Astronomical Twilight 5:24 AM EDT 8:29 PM EDT
Moon 10:14 PM EDT (9/24) 12:07 PM EDT (9/24)
Length of Visible Light 12h 57m
Length of Day
12h 03m
Waning Gibbous, 73% of the Moon is Illuminated
Sep 24
Waning Gibbous
Sep 26
Last Quarter
Oct 4
New
Oct 11
First Quarter
Oct 18
Full

Hourly Weather History & Observations

Time (EDT) Temp. Windchill Dew Point Humidity Pressure Visibility Wind Dir Wind Speed Gust Speed Precip Events Conditions
12:53 AM 44.1 °F 42.5 °F 41.0 °F 89% 30.09 in 10.0 mi NNW 3.5 mph - N/A   Clear
1:53 AM 44.1 °F 42.5 °F 41.0 °F 89% 30.10 in 10.0 mi NW 3.5 mph - N/A   Clear
2:53 AM 45.0 °F 43.5 °F 41.0 °F 86% 30.10 in 10.0 mi WNW 3.5 mph - N/A   Clear
3:53 AM 44.1 °F 41.5 °F 39.9 °F 85% 30.10 in 10.0 mi NNW 4.6 mph - N/A   Clear
4:53 AM 42.1 °F 39.2 °F 39.0 °F 89% 30.10 in 10.0 mi NNE 4.6 mph - N/A   Clear
5:53 AM 42.1 °F - 39.0 °F 89% 30.10 in 10.0 mi Calm Calm - N/A   Clear
6:53 AM 39.9 °F 36.7 °F 37.9 °F 93% 30.11 in 10.0 mi NW 4.6 mph - N/A   Clear
7:53 AM 44.1 °F 41.5 °F 41.0 °F 89% 30.12 in 10.0 mi WNW 4.6 mph - N/A   Clear
8:53 AM 50.0 °F - 43.0 °F 77% 30.12 in 10.0 mi NW 9.2 mph - N/A   Clear
9:53 AM 54.0 °F - 44.1 °F 69% 30.11 in 10.0 mi NW 6.9 mph - N/A   Clear
10:53 AM 57.0 °F - 44.1 °F 62% 30.09 in 10.0 mi WNW 5.8 mph - N/A   Clear
11:53 AM 60.1 °F - 45.0 °F 57% 30.06 in 10.0 mi West 6.9 mph - N/A   Clear
12:53 PM 64.0 °F - 46.0 °F 52% 30.04 in 10.0 mi NW 10.4 mph - N/A   Clear
1:53 PM 66.9 °F - 45.0 °F 45% 30.00 in 10.0 mi West 4.6 mph - N/A   Clear
2:53 PM 68.0 °F - 44.1 °F 42% 29.98 in 10.0 mi NW 5.8 mph - N/A   Clear
3:53 PM 70.0 °F - 45.0 °F 41% 29.96 in 10.0 mi NW 6.9 mph - N/A   Clear
4:53 PM 70.0 °F - 44.1 °F 39% 29.95 in 10.0 mi NW 9.2 mph - N/A   Clear
5:53 PM 70.0 °F - 44.1 °F 39% 29.95 in 10.0 mi NNW 8.1 mph - N/A   Clear
6:53 PM 64.9 °F - 45.0 °F 48% 29.95 in 10.0 mi NNW 5.8 mph - N/A   Clear
7:53 PM 63.0 °F - 45.0 °F 52% 29.95 in 10.0 mi West 4.6 mph - N/A   Clear
8:53 PM 60.1 °F - 45.0 °F 57% 29.96 in 10.0 mi Calm Calm - N/A   Clear
9:53 PM 54.0 °F - 46.0 °F 75% 29.96 in 10.0 mi NW 5.8 mph - N/A   Clear
10:53 PM 52.0 °F - 45.0 °F 77% 29.95 in 10.0 mi Calm Calm - N/A   Clear
11:53 PM 53.1 °F - 45.0 °F 74% 29.95 in 10.0 mi Calm Calm - N/A   Clear